CW1492 Weather Reports


Display with metric or nautical units.
time (UTC)temp
F
wind
direction
speed
MPH
gust
MPH
rain 1hr
in
rain 24hr
in
rain mn
in
humidity
%
barometer
mb
20260906143409 60 349 3.0 5.0 0.00 0.24 0.14 90 1018.0
20260906143356 60 319 1.0 4.0 0.00 0.28 0.15 93 1016.5
20260906141831 59 136 1.0 2.0 0.00 0.28 0.15 95 1016.6
20260906141829 59 263 1.0 4.0 0.02 0.24 0.14 90 1018.1
20260906140422 58 280 2.0 5.0 0.02 0.24 0.14 90 1018.1
20260906140317 59 67 1.0 3.0 0.00 0.28 0.15 97 1016.5
20260906134842 58 321 1.0 3.0 0.02 0.24 0.14 90 1018.1
20260906134812 58 360 1.0 3.0 0.00 0.28 0.15 96 1016.5
20260906133352 58 324 2.0 6.0 0.02 0.24 0.14 90 1018.1
20260906133346 58 323 1.0 2.0 0.00 0.28 0.15 97 1016.6
20260906131834 58 284 1.0 3.0 0.00 0.22 0.12 90 1018.0
20260906131819 58 292 1.0 4.0 0.00 0.28 0.15 97 1016.4
20260906130409 58 323 1.0 2.0 0.00 0.28 0.15 97 1016.3
20260906130343 58 306 1.0 4.0 0.00 0.22 0.12 90 1017.8
20260906124851 58 308 0.0 3.0 0.00 0.22 0.12 90 1017.9
20260906124831 57 5 1.0 3.0 0.00 0.28 0.15 97 1016.6
20260906123438 58 348 2.0 4.0 0.00 0.22 0.12 90 1017.8
20260906123335 57 350 1.0 3.0 0.00 0.28 0.15 97 1016.3
20260906121844 57 290 2.0 6.0 0.00 0.22 0.12 90 1017.8
20260906121814 57 316 1.0 2.0 0.00 0.28 0.15 98 1016.2
20260906120408 57 311 1.0 4.0 0.00 0.28 0.15 97 1016.2
20260906120327 57 341 2.0 4.0 0.00 0.22 0.12 90 1017.7
20260906114901 57 297 1.0 3.0 0.01 0.22 0.12 90 1017.5
20260906113347 57 322 1.0 3.0 0.01 0.22 0.12 90 1017.4
20260906113323 57 346 1.0 2.0 0.01 0.28 0.15 97 1015.7
20260906111852 57 291 0.0 3.0 0.02 0.22 0.12 90 1017.2
20260906111824 57 345 1.0 2.0 0.01 0.28 0.15 97 1015.6
20260906110440 57 340 0.0 5.0 0.02 0.22 0.12 90 1017.0
20260906110348 57 317 1.0 2.0 0.01 0.28 0.15 97 1015.4
20260906104844 57 5 1.0 2.0 0.00 0.27 0.14 97 1015.5
20260906104839 57 328 0.0 2.0 0.01 0.21 0.11 90 1017.0
20260906103430 57 9 1.0 2.0 0.00 0.27 0.14 97 1015.2
20260906103347 57 356 1.0 2.0 0.01 0.21 0.11 90 1016.8
20260906101935 57 40 0.0 1.0 0.00 0.27 0.14 97 1014.9
20260906101846 57 290 0.0 0.0 0.00 0.20 0.10 90 1016.5
20260906100330 57 92 0.0 0.0 0.00 0.27 0.14 97 1014.9
20260906094851 57 218 0.0 0.0 0.04 0.20 0.10 90 1016.3
20260906094824 57 92 0.0 0.0 0.00 0.27 0.14 97 1014.7
20260906093353 58 92 0.0 2.0 0.01 0.27 0.14 97 1014.6
20260906093338 57 218 0.0 0.0 0.05 0.20 0.10 90 1016.2
20260906091851 58 112 0.0 1.0 0.02 0.27 0.14 97 1014.5
20260906091825 57 218 0.0 2.0 0.06 0.20 0.10 89 1016.0
20260906090353 58 323 0.0 2.0 0.06 0.18 0.08 90 1015.9
20260906090319 58 116 0.0 3.0 0.08 0.27 0.14 97 1014.4
20260906084901 58 331 1.0 2.0 0.05 0.16 0.06 90 1015.9
20260906084855 58 18 0.0 2.0 0.13 0.27 0.14 97 1014.4
20260906083328 58 357 0.0 1.0 0.04 0.15 0.05 90 1015.9
20260906083321 58 351 0.0 0.0 0.12 0.26 0.13 97 1014.4
20260906081840 58 351 0.0 0.0 0.10 0.24 0.11 97 1014.4
20260906081835 58 357 0.0 2.0 0.03 0.14 0.04 89 1015.8
20260906080422 58 331 0.0 1.0 0.01 0.12 0.02 89 1015.9
20260906080344 58 351 0.0 1.0 0.04 0.18 0.05 97 1014.4
20260906074909 58 351 0.0 2.0 0.00 0.14 0.01 97 1014.3
20260906074844 58 335 0.0 1.0 0.00 0.11 0.01 89 1015.8
20260906073411 58 335 0.0 0.0 0.01 0.11 0.01 89 1015.6
20260906073335 58 347 0.0 1.0 0.00 0.14 0.01 97 1014.2
20260906071852 58 335 0.0 0.0 0.01 0.11 0.01 89 1015.6
20260906071835 58 347 0.0 0.0 0.00 0.14 0.01 97 1014.0
20260906070347 58 335 0.0 0.0 0.01 0.11 0.01 89 1015.6
20260906070338 58 347 1.0 1.0 0.00 0.14 0.01 97 1014.1
20260906064919 58 309 1.0 2.0 0.01 0.14 0.01 97 1014.1
20260906064848 58 335 0.0 0.0 0.01 0.11 0.01 89 1015.6
20260906064815 58 309 1.0 2.0 0.01 0.14 0.01 97 1014.1
20260906063400 58 281 2.0 2.0 0.01 0.14 0.01 97 1014.2
20260906063334 58 335 0.0 0.0 0.00 0.10 0.00 89 1015.7
20260906061847 58 335 0.0 0.0 0.00 0.10 0.00 89 1015.5
20260906061815 58 290 0.0 2.0 0.01 0.14 0.01 97 1014.1
20260906060413 58 335 0.0 0.0 0.00 0.10 0.00 89 1015.8
20260906060316 58 288 1.0 2.0 0.01 0.14 0.01 97 1014.2
20260906054855 58 335 0.0 0.0 0.00 0.10 0.00 89 1015.8
20260906054836 58 283 0.0 3.0 0.00 0.13 0.00 97 1014.2
20260906053340 58 329 1.0 1.0 0.00 0.13 0.00 97 1014.2
20260906053332 58 335 0.0 0.0 0.00 0.10 0.00 88 1015.7
20260906051907 58 330 0.0 2.0 0.00 0.13 0.00 96 1014.3
20260906051850 58 335 0.0 2.0 0.00 0.10 0.00 87 1015.7
20260906050351 58 301 1.0 3.0 0.00 0.10 0.00 87 1015.8
20260906050329 58 355 1.0 3.0 0.00 0.13 0.00 96 1014.3
20260906044827 59 30 1.0 3.0 0.00 0.10 0.00 87 1015.7
20260906044824 59 360 1.0 3.0 0.00 0.13 0.00 96 1014.3
20260906043407 59 355 1.0 2.0 0.00 0.13 0.00 96 1014.4
20260906043333 59 3 1.0 3.0 0.00 0.10 0.00 87 1015.9
20260906041926 59 349 1.0 2.0 0.00 0.10 0.00 87 1015.8
20260906041844 59 349 1.0 2.0 0.00 0.10 0.00 87 1015.8
20260906041818 59 9 1.0 3.0 0.00 0.13 0.13 96 1014.3
20260906040412 59 5 0.0 2.0 0.01 0.10 0.00 87 1015.8
20260906040408 59 338 0.0 2.0 0.00 0.13 0.13 96 1014.4
20260906034851 59 52 0.0 3.0 0.02 0.10 0.10 86 1015.8
20260906034822 60 338 0.0 1.0 0.01 0.13 0.13 95 1014.3
20260906033435 60 338 1.0 2.0 0.01 0.13 0.13 94 1014.1
20260906033342 60 43 1.0 3.0 0.02 0.10 0.10 87 1015.5
20260906031917 60 326 1.0 3.0 0.09 0.13 0.13 94 1014.0
20260906031828 60 294 2.0 3.0 0.06 0.10 0.10 85 1015.5
20260906030338 60 25 0.0 1.0 0.05 0.09 0.09 84 1015.3
20260906030314 61 26 0.0 1.0 0.13 0.13 0.13 93 1013.9
20260906024839 60 330 1.0 4.0 0.04 0.08 0.08 80 1015.4
20260906024837 62 77 1.0 5.0 0.12 0.12 0.12 92 1013.9
20260906023406 63 81 1.0 5.0 0.12 0.12 0.12 90 1013.8
20260906023348 61 143 1.0 3.0 0.04 0.08 0.08 77 1015.1
20260906021845 64 74 2.0 5.0 0.04 0.04 0.04 88 1013.8
20260906021832 61 360 1.0 3.0 0.00 0.04 0.04 75 1015.1
20260906020336 62 360 3.0 4.0 0.00 0.04 0.04 74 1014.9
20260906020327 64 109 3.0 5.0 0.00 0.00 0.00 85 1013.6
20260906014838 62 97 2.0 5.0 0.00 0.04 0.04 73 1014.5
20260906014829 64 19 0.0 9.0 0.00 0.00 0.00 85 1013.4
20260906013417 64 75 0.0 8.0 0.00 0.00 0.00 86 1013.4
20260906013346 63 168 1.0 6.0 0.04 0.04 0.04 77 1014.5
20260906011908 63 132 1.0 4.0 0.04 0.04 0.04 77 1014.4
20260906011901 64 54 1.0 5.0 0.00 0.00 0.00 90 1013.4
20260906010333 63 103 2.0 4.0 0.04 0.04 0.04 74 1014.4
20260906010323 64 105 0.0 1.0 0.00 0.00 0.00 90 1013.3
20260906004900 66 105 0.0 0.0 0.00 0.00 0.00 87 1013.1
20260906004837 64 110 2.0 4.0 0.04 0.04 0.04 70 1014.2
20260906003344 66 72 4.0 9.0 0.00 0.00 0.00 66 1014.1
20260906003321 66 341 0.0 1.0 0.00 0.00 0.00 85 1013.0
20260906001902 65 341 0.0 1.0 0.00 0.00 0.00 84 1012.8
20260906001848 66 263 0.0 1.0 0.00 0.00 0.00 64 1013.9
20260906000440 66 263 0.0 1.0 0.00 0.00 0.00 62 1014.0
20260906000326 66 341 0.0 0.0 0.00 0.00 0.00 83 1012.7
20260905234843 67 349 1.0 3.0 0.00 0.00 0.00 62 1013.8
20260905233330 67 354 2.0 5.0 0.00 0.00 0.00 62 1013.6
20260905233322 67 340 0.0 1.0 0.00 0.00 0.00 81 1012.4
20260905231855 68 338 0.0 1.0 0.00 0.00 0.00 61 1013.7
20260905231827 67 346 0.0 0.0 0.00 0.00 0.00 81 1012.3
20260905230355 68 346 0.0 1.0 0.00 0.00 0.00 78 1012.1
20260905230333 68 329 0.0 2.0 0.00 0.00 0.00 61 1013.5
20260905224836 69 19 0.0 1.0 0.00 0.00 0.00 59 1013.4
20260905224814 69 346 0.0 1.0 0.00 0.00 0.00 76 1012.1
20260905223327 69 19 0.0 2.0 0.00 0.00 0.00 58 1013.4
20260905223317 69 313 1.0 2.0 0.00 0.00 0.00 75 1012.0
20260905221927 70 321 2.0 3.0 0.00 0.00 0.00 72 1011.9
20260905221919 69 19 1.0 5.0 0.00 0.00 0.00 57 1013.3
20260905221845 70 321 2.0 3.0 0.00 0.00 0.00 72 1011.9
20260905220343 69 7 2.0 3.0 0.00 0.00 0.00 56 1013.2
20260905220332 71 312 1.0 2.0 0.00 0.00 0.00 69 1011.9
20260905214848 71 299 1.0 5.0 0.00 0.00 0.00 69 1011.7
20260905214842 69 353 3.0 6.0 0.00 0.00 0.00 55 1013.1
20260905213414 70 339 2.0 5.0 0.00 0.00 0.00 55 1012.9
20260905213325 71 322 1.0 4.0 0.00 0.00 0.00 70 1011.5
20260905211842 71 212 1.0 8.0 0.00 0.00 0.00 53 1012.6
20260905211827 72 297 1.0 5.0 0.00 0.00 0.00 68 1011.2
20260905210432 72 8 3.0 9.0 0.00 0.00 0.00 52 1012.6
20260905210315 72 325 1.0 3.0 0.00 0.00 0.00 68 1011.1
20260905204838 73 332 4.0 8.0 0.00 0.00 0.00 50 1012.5
20260905204811 73 355 1.0 5.0 0.00 0.00 0.00 66 1011.0
20260905203425 75 255 3.0 9.0 0.00 0.00 0.00 62 1010.7
20260905203405 74 262 8.0 14.0 0.00 0.00 0.00 49 1012.3
20260905201831 75 339 5.0 12.0 0.00 0.00 0.00 46 1012.2
20260905201820 75 321 3.0 6.0 0.00 0.00 0.00 61 1010.6
20260905200330 75 343 7.0 14.0 0.00 0.00 0.00 46 1012.1
20260905200326 74 58 2.0 9.0 0.00 0.00 0.00 64 1010.5
20260905194852 75 297 4.0 14.0 0.00 0.00 0.00 50 1012.0
20260905194824 75 119 2.0 8.0 0.00 0.00 0.00 63 1010.5
20260905193336 75 308 3.0 11.0 0.00 0.00 0.00 50 1012.1
20260905193330 75 92 2.0 4.0 0.00 0.00 0.00 64 1010.6
20260905191907 74 307 4.0 12.0 0.00 0.00 0.00 50 1012.1
20260905191828 74 302 3.0 5.0 0.00 0.00 0.00 63 1010.6
20260905190356 74 283 5.0 13.0 0.00 0.00 0.00 53 1012.2
20260905190335 74 316 3.0 9.0 0.00 0.00 0.00 64 1010.6
20260905184907 72 353 7.0 12.0 0.00 0.00 0.00 52 1012.2
20260905184829 75 355 2.0 8.0 0.00 0.00 0.00 66 1010.5
20260905183357 73 317 2.0 5.0 0.00 0.00 0.00 70 1010.4
20260905183354 74 297 6.0 12.0 0.00 0.00 0.00 51 1012.1
20260905181857 73 328 7.0 14.0 0.00 0.00 0.00 52 1012.1
20260905181831 74 284 2.0 7.0 0.00 0.00 0.00 65 1010.4
20260905180402 73 81 2.0 6.0 0.00 0.00 0.00 68 1010.5
20260905174852 74 303 6.0 12.0 0.00 0.00 0.00 48 1012.1
20260905174819 73 306 3.0 9.0 0.00 0.00 0.00 66 1010.6
20260905173354 74 240 5.0 9.0 0.00 0.00 0.00 52 1012.1
20260905173319 74 344 3.0 13.0 0.00 0.00 0.00 65 1010.5
20260905171843 73 334 4.0 11.0 0.00 0.00 0.00 51 1012.1
20260905171823 73 305 2.0 6.0 0.00 0.00 0.00 66 1010.4
20260905170347 75 34 3.0 11.0 0.00 0.00 0.00 65 1010.4
20260905170343 73 21 4.0 11.0 0.00 0.00 0.00 54 1012.1
20260905164851 73 261 3.0 16.0 0.00 0.00 0.00 54 1012.1
20260905164826 74 355 3.0 9.0 0.00 0.00 0.00 66 1010.5
20260905163413 73 52 3.0 6.0 0.00 0.00 0.00 66 1010.6
20260905163336 74 277 6.0 11.0 0.00 0.00 0.00 54 1012.0
20260905161926 73 360 2.0 6.0 0.00 0.00 0.00 68 1010.6
20260905161910 73 290 3.0 14.0 0.00 0.00 0.00 61 1012.2
20260905161827 73 290 3.0 14.0 0.00 0.00 0.00 61 1012.2
20260905160326 72 353 4.0 14.0 0.00 0.00 0.00 61 1012.4
20260905154827 71 264 4.0 10.0 0.00 0.00 0.00 66 1012.4
20260905154824 72 298 2.0 4.0 0.00 0.00 0.00 69 1011.0
20260905153428 71 327 1.0 9.0 0.00 0.00 0.00 69 1011.0
20260905153405 69 7 2.0 11.0 0.00 0.00 0.00 66 1012.6
20260905151847 71 318 2.0 11.0 0.00 0.00 0.00 66 1012.5
20260905151826 71 315 2.0 6.0 0.00 0.00 0.00 72 1011.2
20260905150430 70 298 1.0 4.0 0.00 0.00 0.00 77 1011.2
20260905150350 70 62 4.0 12.0 0.00 0.00 0.00 68 1012.5
20260905144906 69 320 4.0 8.0 0.00 0.00 0.00 78 1011.3
20260905144850 70 2 4.0 11.0 0.00 0.00 0.00 69 1012.6